Regional Weather Roundup
Issued by NWS Wakefield, VA

Home | Current Version | Previous Version | Graphics & Text | Print | Product List | Glossary On
Versions: 1 2 3 4 5 6 7 8 9 10 11 12 13 14 15 16 17 18 19 20 21 22 23 24 25 26 27 28 29 30 31 32 33 34 35 36 37 38 39 40 41 42 43 44 45 46 47 48 49 50
000
ASUS41 KAKQ 071214
RWRAKQ

REGIONAL WEATHER ROUNDUP
NATIONAL WEATHER SERVICE WAKEFIELD VA
700 AM EST SUN FEB 07 2016

Note: "fair" indicates few or no clouds below 12,000 feet with no
significant weather and/or obstructions to visibility. * = Denotes
station may not report precipitation (e.g., rain,snow,etc.),
thunder or fog.

VAZ042-051-052>054-056-071300-
NORTHERN VIRGINIA

CITY           SKY/WX    TMP DP  RH WIND       PRES   REMARKS
WASH NATIONAL  MOCLDY    31  25  78 SW3       30.21R
DULLES         FAIR      24  20  84 CALM      30.19S
FORT BELVOIR   FAIR      24  22  90 CALM      30.20R
QUANTICO       FAIR      30  25  81 NW6       30.20S
FREDERICKSBRG* FAIR      28  26  94 CALM      30.17F
STAFFORD*      FAIR      26  23  87 CALM      30.22S
WARRENTON      FAIR      23  23  99 CALM      30.18R
CULPEPER*      FAIR      22  20  93 CALM      30.19S
MANASSAS*      CLEAR     21  21 100 CALM      30.20R
LEESBURG*      FAIR      27  23  86 CALM      30.19S
WINCHESTER     FAIR      27  21  80 CALM      30.16S
FRONT ROYAL*   FAIR      27  21  80 CALM      30.16S
LURAY*         FAIR      23  23 100 CALM      30.17R
$$

VAZ048-049-060>072-079>083-071300-
CENTRAL AND SOUTH CENTRAL VIRGINIA

CITY           SKY/WX    TMP DP  RH WIND       PRES   REMARKS
RICHMOND       CLOUDY    32  27  81 CALM      30.16R
CHESTERFIELD*  FAIR      30  18  59 CALM      30.16F
PETERSBURG*    FAIR      33  30  90 CALM      30.16S
HANOVER        FAIR      30  26  85 N3        30.18S
TAPPAHANNOCK*  FAIR      30  29  95 CALM      30.17F
QUINTON*       FAIR      30  28  92 CALM      30.16F
CHARLOTTSVILLE FAIR      27  20  75 CALM      30.15F
GORDONSVILLE*  FAIR      26  24  91 CALM      30.15F
ORANGE*        FAIR      28  27  93 CALM      30.18S
LOUISA*        FAIR      28  21  74 CALM      30.14F
BUMPASS*       FAIR      29  26  88 CALM      30.16F
FARMVILLE*     FAIR      31  24  75 CALM      30.14F
CREWE*         FAIR      29  29  99 CALM      30.15S
FORT PICKETT*  FAIR      32  26  79 N6        30.14S
CHASE CITY*    FAIR      33  23  69 N3        30.13F
CLARKSVILLE*   FAIR      34  28  80 N5        30.12F
SOUTH HILL*    FAIR      32  28  86 N6        30.17F
LAWRENCEVILLE* FAIR      33  28  83 CALM      30.12F
EMPORIA*       FAIR      32  28  86 N5        30.14F
$$

VAZ088>098-071300-
SOUTHEAST VIRGINIA

CITY           SKY/WX    TMP DP  RH WIND       PRES   REMARKS
NORFOLK        FAIR      39  27  62 NE13      30.12F
VIRGINIA BEACH CLOUDY    43  28  55 NE13      30.12F
NORFOLK NAVAL  CLOUDY    39  26  59 NE12      30.15F
WEST POINT*    FAIR      32  28  84 N3        30.18F
SALUDA*        FAIR      34  30  86 CALM      30.16S
NEWPORT NEWS   MOCLDY    33  30  88 N6        30.14F
LANGLEY AFB    FAIR      35  30  80 NE9       30.13F
FORT EUSTIS    FAIR      35  27  72 N5        30.13F
WILLIAMSBURG*  MOCLDY    36  34  93 CALM      30.17S
HR EXEC AP*    FAIR      36  30  80 NE6       30.15F
FRANKLIN*      MOCLDY    33  29  85 N6        30.13F
US460-WAKEFLD  CLOUDY    33  28  81 N3        30.15F
$$

VAZ020-022-025-037-045-071300-
WEST CENTRAL AND SOUTHWEST VIRGINIA

CITY           SKY/WX    TMP DP  RH WIND       PRES   REMARKS
STAUNTON*      FAIR      26  23  88 CALM      30.16F
WAYNESBORO*    FAIR      24  20  84 CALM      30.13F
HOT SPRINGS VA FAIR      28  18  65 NW8       30.02F
LYNCHBURG      FAIR      29  21  72 CALM      30.14F
DANVILLE       FAIR      34  24  67 N3        30.13F
SOUTH BOSTON*  FAIR      32  23  70 N6        30.12F
MARTINSVILLE   FAIR      25  22  87 N3        30.13F
ROANOKE        CLOUDY    26  21  81 CALM      30.17F
BLACKSBURG     FAIR      24  22  91 CALM      30.14S
DUBLIN*        FAIR      27  22  80 CALM      30.12S
MARION*        FAIR      26  18  74 CALM      30.13F
HILLSVILLE*    FAIR      28  19  66 N3        30.07S
RICHLANDS*     FAIR      29  17  61 W3        30.11F
WISE*          FAIR      30  18  59 CALM      30.14S
ABINGDON*      FAIR      26  20  77 CALM      30.13F
$$

MDZ021>025-VAZ099-100-071300-
SOUTHERN MARYLAND AND THE DELMARVA PENINSULA

CITY           SKY/WX    TMP DP  RH WIND       PRES   REMARKS
PATUXENT RIVER PTCLDY    29  26  89 NW3       30.18R
BAY BRIDGE APT   N/A     30  28  93 CALM      30.19R
LEONARDTOWN    CLOUDY    30  27  86 CALM      30.20S
DOVER          CLOUDY    27  27 100 S2        30.19S
GEORGETOWN     CLOUDY    26  23  88 CALM      30.20R
EASTON         PTCLDY    28  28 100 CALM      30.22F
CAMBRIDGE      CLOUDY    28  28 100 CALM      30.18S
SALISBURY      PTCLDY    27  24  89 NE3       30.17S
OCEAN CITY     PTCLDY    27  25  92 N6        30.18S
WALLOPS ISLAND FAIR      31  24  75 N6        30.18R
ACCOMACK*      FAIR      30  27  86 NE6       30.16F
$$

NCZ012>017-030>032-071300-
NORTH CENTRAL AND EASTERN NORTH CAROLINA

CITY           SKY/WX    TMP DP  RH WIND       PRES   REMARKS
ROANOKE RAPIDS FAIR      36  30  80 N5        30.12S
RALEIGH        CLOUDY    37  25  61 NE9       30.10F
ELIZABETH CITY CLOUDY    40  31  70 N12       30.09F
AHOSKIE*       LGT RAIN  36  28  75 N5        30.12R
EDENTON*       CLOUDY    40  30  67 N8        30.09F
CURRITUCK*     CLOUDY    42  29  61 NE14G20   30.10F
KILL DEVIL HLS CLOUDY    44  35  71 NE10G21   30.05F
MANTEO         CLOUDY    44  37  78 NE17G25   30.06F
CAPE HATTERAS  LGT RAIN  45  41  86 NE16G29   29.99F
TARBORO*       LGT RAIN  36  32  86 N5        30.12F
GOLDSBORO      LGT RAIN  36  36 100 N10       30.05F
WASHINGTON     LGT RAIN  35  30  83 CALM      30.07F
GREENVILLE     LGT RAIN  36  32  87 N5        30.11R
NEW BERN       RAIN      36  29  75 N15G23    30.06R
WILMINGTON     RAIN      37  34  89 N13G22    29.98R
$$

VAZ048-071300-
ELSEWHERE

CITY           SKY/WX    TMP DP  RH WIND       PRES   REMARKS
HARRISBURG PA  PTCLDY    22  19  89 NW6       30.19F
BALTIMORE      MOCLDY    23  20  88 CALM      30.18F
ANNAPOLIS      PTCLDY    30  26  85 CALM      30.19S
ANDREWS AFB    FAIR      28  24  84 CALM      30.18R
PHILADELPHIA   PTCLDY    28  22  78 N5        30.20F
HENDERSON NC   CLOUDY    34  28  77 N5        30.09F
GREENSBORO     CLOUDY    34  17  50 N5        30.08F
ROCKY MOUNT    MIX PCPN  36  31  82 N8        30.11S
$$

VAZ100-071300-
MARINE

STATION/POSITION TIME  TEMP    WIND        PRES    WAVE   SWELL
                       AIR SEA DIR/SP/G            HT/PER HT/PER
                 (UTC) (F)     (DEG/KT/KT) (MB)    (FT/S) (FT/S)
BRANDYWINE LGT   1100   36     330/  2/  5 1022.3F
CAPE MAY NJ      1100   31 42  340/  2/  4 1022.1F
LEWES DE         1100   35 42  310/  5/  5 1022.1F
15NM E FENWICK I 1150   40 45              1022.2R   2/ 9
OCEAN-CITY-INLET 1100   34 41   30/  3/  6 1021.3F
WACHAPREAGUE VA  1100   33 43  360/  3/  4 1021.5F
THOMAS POINT MD  1200   33     330/  4       N/A
GOOSES REEF MD   1200   36 39  340/  4/  4 1023.2R   0
COVE POINT MD    1100   35     340/  4/  7 1022.5F
SOLOMONS ISLAND  1100   33 41  260/  1/  4   N/A
BISHOPS HEAD MD  1100   36 41   10/  3/  5 1021.1F
POTOMAC MD       1200   36 40  360/  6/  8 1020.8F   0
CAMBRIDGE MD     1100   33 40   20/  2/  3 1021.1F
LEWISETTA VA     1100   35 42  300/  2/  3 1021.7F
RAPPAHANNOCK LGT 1100           20/  8/  8 1021.8F
STINGRAY PT      1200   39 42   40/  8/ 10 1021.2F
YORK RVR RNG VA  1100   38      30/  8/  9 1020.8R
YORKTOWN VA      1100   36 43   30/  5/  6 1021.3R
JAMESTOWN VA     1200   34 45   10/  4/  6   N/A     0
DOMINION TERM VA 1100   36      20/  4/  5 1021.2R
KIPTOPEKE VA     1100      42   30/  3/  5   N/A
CHES BAY BRIDGE  1100   40 43   30/ 12/ 14 1020.7R
CAPE HENRY VA    1100   41      30/ 15/ 16   N/A
CHESAPEAKE LGHT  1100   42      40/ 20/ 21 1021.4R
WILLOUBY STN VA  1100   40      50/ 12/ 14 1027.5S
CAPE HENRY BUOY  1128      45                N/A     4/11   2/11
1ST LANDING BUOY 1200      43                N/A     2/ 3
CAPE CHARLES BUO 1126      45                N/A     3/10   3/10
OFFSHORE WE BUOY 1121      49                N/A     4/10   3/10
64NM E OF VA BCH 1150   49 54   40/ 19/ 25 1018.6S   5/ 5   3/11
DUCK PIER NC     1100   44 44   20/ 20/ 23 1019.2F
44100 DUCK FRF   1124      47                N/A     6/10   2/11
44056 DUCK FRF   1111      44                N/A     5/ 5   2/11
OREGON INLET NC  1100   44 46   10/ 16/ 22 1018.7F
HATTERAS NC      1100   45 48   20/ 25/ 34 1015.7F
DIAMOND SHLS NC  1150   54 71   20/ 33/ 43 1012.7F  10/ 7
$$




USA.gov is the U.S. government's official web portal to all federal, state and local government web resources and services.